Location: Unspecified
(42.3650°N, 71.1030°W)
Time: 10:35:51
(UTC+00:00)

Courier 1B - Pass Details

Date: 27 June 2024
Orbit: 962 x 1209 km, 28.3° (Epoch: 13 July)

Event Time Altitude Azimuth Distance (km) Brightness Sun altitude
Rises 07:59:35 0° 254° (WSW) 3,871 - -10.8°
Reaches altitude 10° 08:03:39 10° 233° (SW) 2,966 - -10.3°
Exits shadow 08:04:49 12° 224° (SW) 2,799 9.2 -10.1°
Maximum altitude 08:07:30 15° 201° (SSW) 2,649 9.2 -9.8°
Drops below altitude 10° 08:11:26 10° 169° (SSE) 3,053 9.8 -9.3°
Sets 08:15:45 0° 148° (SSE) 4,053 10.6 -8.7°
